Regional Weather Roundup
Issued by NWS

Home | Current Version | Previous Version | Text Only | Print | Product List | Glossary On
Versions: 1 2 3 4 5 6 7 8 9 10 11 12 13 14 15 16 17 18 19 20 21 22 23 24 25 26 27 28 29 30 31 32 33 34 35 36 37 38 39 40 41 42 43 44 45 46 47 48 49 50
000
ASUS43 KLSX 260910
RWRMO

WEATHER SUMMARY FOR MISSOURI
NATIONAL WEATHER SERVICE SPRINGFIELD MO
400 AM CDT SUN MAR 26 2017

NOTE: "FAIR" INDICATES FEW OR NO CLOUDS BELOW 12,000 FEET WITH NO
       SIGNIFICANT WEATHER AND/OR OBSTRUCTIONS TO VISIBILITY.
       CURRENT SKY AND/OR WEATHER CONDITIONS ARE NOT AVAILABLE FOR
       CHILLICOTHE AND FARMINGTON.

MOZ001>031-035>038-043-044-053-054-261000-
...NORTHERN AND WESTERN MISSOURI...

CITY           SKY/WX    TMP DP  RH WIND       PRES   REMARKS
KANSAS CTY INT CLOUDY    43  42  97 NW6       29.87S
KANSAS C DTWN  CLOUDY    45  42  89 W6        29.87S
LEE`S SUMMIT   CLOUDY    44  44 100 NW6       29.87S
ST JOSEPH      CLOUDY    43  43 100 NW6       29.88S
CHILLICOTHE      N/A     44  42  93 VRB5      29.85S
KIRKSVILLE     CLOUDY    46  45  96 NW7       29.80S

$$
MOZ066>068-077>081-088>096-101>105-261000-
...SOUTHWEST MISSOURI...

CITY           SKY/WX    TMP DP  RH WIND       PRES   REMARKS
SPRINGFIELD    CLOUDY    47  43  86 W6        29.88R
JOPLIN         CLOUDY    47  45  93 W9        29.91S
BRANSON        CLOUDY    46  46 100 W3        29.90S

$$
MOZ032>034-039>042-045>050-055>058-069>072-261000-
...CENTRAL MISSOURI...

CITY           SKY/WX    TMP DP  RH WIND       PRES   REMARKS
COLUMBIA       CLOUDY    49  49 100 W7        29.83S FOG
JEFFERSON CITY CLOUDY    52  48  86 SW3       29.84F
ROLLA          CLOUDY    47  46  97 SW12      29.84F
SEDALIA        CLOUDY    49 N/A N/A NW6       29.86R
WHITEMAN AFB   CLOUDY    47  47 100 NW10      29.85R
WARRENSBURG    CLOUDY    45  43  93 W6        29.87R
OSAGE BEACH    CLOUDY   N/A N/A N/A SW6       29.86F

$$
MOZ051-052-059>065-261000-
...EAST CENTRAL MISSOURI...

CITY           SKY/WX    TMP DP  RH WIND       PRES   REMARKS
ST LOUIS INTL  CLOUDY    54  48  80 SW7       29.84F
SPIRIT OF STL  CLOUDY    52  49  89 SW5       29.84F
ST CHARLES     CLOUDY    52  49  89 SW10      29.84F

$$
MOZ072>076-082>087-097>100-106>115-261000-
...SOUTH CENTRAL AND SOUTHEAST MISSOURI...

CITY           SKY/WX    TMP DP  RH WIND       PRES   REMARKS
CAPE GIRARDEAU CLOUDY    55  51  86 SW6       29.87F
FARMINGTON     CLOUDY    51  47  86 SW6       29.87F
POPLAR BLUFF   MOCLDY    53  48  83 SW3       29.89S
WEST PLAINS    CLOUDY    48  45  89 W5        29.88F

$$



USA.gov is the U.S. government's official web portal to all federal, state and local government web resources and services.